Tracking 30922 objects as of 2-Jul-2025
HD Live streaming from Space Station
objects crossing your sky now

FENGYUN 1C DEB

Track FENGYUN 1C DEB now!
10-day predictions


NORAD ID: 32153
Int'l Code: 1999-025CSX
Perigee: 589.6 km
Apogee: 887.6 km
Inclination: 98.8 °
Period: 99.4 minutes
Semi major axis: 7109 km
RCS: 0.0005 m2 (small)
Launch date: May 10, 1999
Source: People's Republic of China (PRC)
Launch site: Taiyaun Space Center, China (TSC)

Note: This is SATELLITE DEBRIS
Your satellite tracking list
Your tracking list is empty




NASA's NSSDC Master Catalog

Two Line Element Set (TLE):
1 32153U 99025CSX 25177.26039024  .00000516  00000-0  11717-3 0  9999
2 32153  98.7842  13.4416 0209597  12.5559 348.0741 14.48228660947707
Source of the keplerian elements: AFSPC